Regional Weather Roundup
Issued by NWS Green Bay, WI

Home | Current Version | Previous Version | Text Only | Print | Product List | Glossary On
Versions: 1 2 3 4 5 6 7 8 9 10 11 12 13 14 15 16 17 18 19 20 21 22 23 24 25 26 27 28 29 30 31 32 33 34 35 36 37 38 39 40 41 42 43 44 45 46 47 48 49 50
000
ASUS43 KGRB 041211
RWRGRB

NORTH-CENTRAL AND NORTHEAST WISCONSIN REGIONAL WEATHER ROUNDUP
NATIONAL WEATHER SERVICE GREEN BAY WI
700 AM CDT FRI SEP 04 2015

WIZ005-009-010>012-018-019-041300-
NORTH CENTRAL WISCONSIN

CITY           SKY/WX    TMP DP  RH WIND       PRES   REMARKS
IRONWOOD       CLEAR     61  61 100 E7        30.01S
MANITOWISH WTR PTCLDY    54  54 100 CALM      30.07R FOG
ARBOR VITAE    CLEAR     57  56  97 CALM      30.07R
EAGLE RIVER    FOG       54  54 100 CALM      30.07R VSB 1/2
LAND O LAKES   CLEAR     53  53 100 CALM      30.09S FOG
RHINELANDER    PTCLDY    58  56  93 CALM      30.08R FOG
PHILLIPS       CLEAR     57  57 100 E3        30.04S
ANTIGO         CLEAR     56  56 100 NE5       30.06S FOG
TOMAHAWK       FOG       52  52  97 CALM      30.06S VSB<1/4
MERRILL        FOG       52  52 100 CALM      30.06S VSB<1/4
$$

WIZ013-073-041300-
NORTHEAST WISCONSIN

CITY           SKY/WX    TMP DP  RH WIND       PRES   REMARKS
IRON MOUNTAIN  CLEAR     58  57  97 NW3       30.05R
MARINETTE      CLEAR     63  57  82 NE6       30.01S
OCONTO         CLEAR     62  62 100 NE5       30.02R
$$

WIZ017-030-035>037-045-041300-
CENTRAL WISCONSIN

CITY           SKY/WX    TMP DP  RH WIND       PRES   REMARKS
MEDFORD        CLEAR     61  60  99 E6        30.05R
WAUSAU         CLEAR     60  59  96 CALM      30.04R FOG
MOSINEE        FOG       61  61 100 E6        30.05R VSB 1/16
MARSHFIELD     PTCLDY    63  59  87 E3        30.04R FOG
WISC RAPIDS    CLOUDY    64  61  90 E8        30.04R FOG
STEVENS POINT  FOG       61  61 100 E7        30.04S VSB 1/4
WAUPACA        CLOUDY    66  65  97 CALM      30.04R FOG
SHAWANO        NOT AVBL
CLINTONVILLE   CLOUDY    63  61  94 NE3       30.03S
WAUTOMA        CLOUDY    64  64 100 NE9       30.04R FOG
$$

WIZ038-039-048-051-041300-
FOX VALLEY

CITY           SKY/WX    TMP DP  RH WIND       PRES   REMARKS
NWS GREEN BAY  CLOUDY    66  64  93 N5        30.02  FOG
APPLETON       CLOUDY    64  64 100 N6        30.01R FOG
OSHKOSH        CLOUDY    68  64  87 E6        30.02R
FOND DU LAC    CLOUDY    67  64  90 E3        30.02S
$$

WIZ022-050-052-041300-
EAST CENTRAL WISCONSIN

CITY           SKY/WX    TMP DP  RH WIND       PRES   REMARKS
EPHRAIM        FAIR      64  63  96 NE3       30.01R
STURGEON BAY   PTCLDY    64  61  88 NW3       30.04R
MANITOWOC      CLOUDY    67  66  97 MISG      30.02R
SHEBOYGAN      CLOUDY    67  65  93 N6        30.01S FOG
$$

LMZ563-521-522-541>543-041300-
LAKESHORE

STATION/POSITION TIME  TEMP    WIND        PRES    VSBY  WAVE
                       AIR SEA DIR/SP/G                  HT/PER
                 (UTC) (F)     (DEG/KT/KT) (MB)    (MI)  (FT/S)
SHEBOYGAN LKSHOR 1200   64     340/  9/ 11 1016.2R
KEWAUNEE LKSHORE 1100   65      10/  6/ 13 1014.9R
ALGOMA MARINA    1144          320/  5/  6   N/A
NORTHPORT PIER   1100   67      40/  9/ 11 1016.3R
N MID LAKE BUOY  1150   68 66   60/ 14/ 16 1015.6S         1/ 3
S GREEN BAY BUOY 1200   65 66   10/  8/ 10 1017.9
SISTER BAY LKSHO 1111   66      50/  3/  6   N/A
CHAMBERS ISLAND  1100   65     350/  7/  9 1016.3R
MENOMINEE LKSHOR 1100   64      10/  9/ 10 1015.1R
$$



USA.gov is the U.S. government's official web portal to all federal, state and local government web resources and services.